Theta_e
337 337 337 337 337 337 336 335 335 335 335 335 334 334 333 331 330 329 328 328 327 327 326 326 327 325 325 327 327 326 327 327 325 322 318 317 317 317 316 316 317 317 317 317 318 320 322 324 325 326 327 327 327 327 330 335 338 340 343 344 344 345 346 347 347 347 348 349 348 348 348 348 348 347
337 337 337 337 337 337 336 336 335 334 335 335 335 335 334 332 331 331 330 330 328 328 328 328 328 329 328 328 327 327 327 327 327 325 321 318 317 317 316 316 317 317 317 317 317 318 318 319 321 323 325 327 327 327 328 331 334 337 340 342 344 345 345 346 346 346 347 349 349 349 349 349 349 349
336 337 337 337 337 336 336 336 337 336 335 335 335 335 334 333 332 332 332 331 330 329 329 329 329 330 330 329 328 328 328 327 327 326 323 319 317 316 317 317 317 317 318 318 318 318 317 318 318 320 322 324 327 328 328 329 332 334 336 338 341 343 344 345 346 346 347 348 349 349 349 349 349 349
336 336 337 336 336 336 336 336 336 337 336 335 335 335 334 334 333 332 331 332 331 330 330 330 330 330 330 330 329 329 329 329 327 327 325 321 319 317 317 317 317 317 318 318 318 318 318 318 318 318 320 322 324 326 328 329 331 333 335 336 337 340 343 345 345 345 346 347 348 348 348 348 349 348
336 336 337 337 337 336 336 336 335 335 335 334 334 334 334 333 332 331 331 332 332 331 330 330 331 330 330 330 330 330 330 330 329 328 326 322 320 319 318 319 319 317 317 318 319 319 318 317 317 318 319 320 323 325 326 328 330 331 333 335 336 338 340 343 345 345 346 346 347 347 347 348 348 348
335 336 336 337 337 336 335 335 334 334 333 333 333 334 333 333 332 331 331 331 332 331 330 330 330 330 330 330 330 330 330 329 329 329 327 324 321 319 319 320 320 318 317 318 318 319 318 317 317 317 317 319 320 323 324 326 328 330 332 334 336 337 339 341 343 345 345 345 346 346 346 347 348 349
334 335 336 336 337 336 335 335 334 333 332 332 333 333 333 332 332 331 331 331 331 331 330 330 329 329 329 330 330 330 330 329 328 327 327 326 325 322 319 320 320 318 318 318 319 319 318 316 316 317 317 317 318 320 322 324 326 328 330 332 334 336 338 340 343 344 345 345 346 345 346 347 348 349
333 334 335 336 336 336 335 334 333 331 330 331 332 332 332 332 332 331 331 331 331 330 330 330 329 329 328 329 329 329 329 328 327 327 327 327 327 325 322 321 320 319 319 319 319 319 317 316 317 317 317 317 318 318 319 321 323 326 328 331 332 334 336 339 341 344 344 345 345 346 345 345 346 347
332 333 335 335 335 336 335 334 332 331 330 330 332 332 332 332 332 331 331 331 330 329 330 329 328 328 328 328 328 328 328 327 326 326 326 326 327 327 325 324 323 322 321 320 320 320 318 317 317 317 317 318 318 318 318 319 320 323 326 329 331 333 334 337 339 342 344 345 345 345 345 345 345 346
331 331 333 334 334 335 335 333 332 331 330 331 332 332 332 332 331 331 331 330 330 329 329 328 327 327 327 327 328 328 328 327 325 325 326 326 326 327 327 327 326 326 324 323 321 320 319 318 318 318 318 318 318 319 319 319 319 320 323 327 330 332 333 334 337 340 342 344 344 345 345 345 344 345
333 332 331 332 332 333 334 333 332 331 331 331 332 332 332 332 332 331 331 330 329 329 328 328 327 327 327 327 327 327 327 327 326 325 326 326 326 326 326 326 326 327 327 326 324 322 320 319 319 319 319 318 318 319 319 320 320 320 321 323 328 331 333 333 335 337 341 343 343 344 344 344 344 344
334 332 331 330 331 332 332 332 332 331 331 331 332 332 332 332 332 331 330 330 329 329 328 327 327 327 327 327 326 326 326 326 326 325 325 326 325 325 325 325 325 326 326 327 326 325 323 323 323 323 322 320 319 319 320 320 321 322 322 322 325 329 332 333 334 335 339 342 343 343 344 344 344 344
332 331 330 330 331 331 331 331 331 331 330 330 330 330 331 332 332 331 330 329 329 328 328 327 327 327 327 326 326 326 326 325 325 325 325 325 325 325 325 325 325 325 325 326 326 325 325 325 325 325 324 322 320 320 321 322 323 324 325 326 328 330 332 333 333 335 337 340 342 343 343 343 344 344
332 331 330 330 330 330 330 329 330 330 330 330 328 327 329 331 332 331 330 329 329 328 328 328 327 327 327 327 326 326 325 325 325 325 325 325 325 325 326 326 325 324 324 325 325 324 324 324 325 325 325 323 321 322 324 323 324 324 324 325 327 330 331 333 334 335 336 338 340 342 343 343 343 344
333 333 331 329 328 328 329 329 329 329 330 330 329 327 326 327 328 329 329 329 328 328 328 328 327 327 327 326 326 325 325 325 325 325 325 325 325 325 325 326 325 325 324 324 324 323 323 323 324 325 325 324 323 323 323 322 322 322 323 323 324 326 329 332 334 335 336 337 339 341 342 343 343 344
331 332 331 329 327 327 328 328 328 328 328 330 330 328 326 325 326 327 328 329 328 328 329 329 327 327 327 326 325 325 325 325 325 325 325 325 324 325 325 325 325 324 324 324 323 323 323 323 323 324 325 325 324 323 322 321 321 322 322 323 323 323 325 329 332 335 336 337 338 339 341 342 344 344
330 329 329 329 328 327 327 327 328 327 328 330 330 328 327 326 326 326 327 328 328 328 329 329 328 327 326 326 325 325 325 326 326 325 325 324 324 324 324 324 325 324 323 323 323 322 322 322 323 323 324 324 324 323 322 322 322 323 323 323 323 323 324 326 329 333 336 337 338 338 340 341 344 345
330 329 329 329 329 328 328 328 327 326 328 330 330 329 328 328 327 327 327 328 328 327 327 328 328 327 326 326 325 325 325 326 326 325 324 324 323 323 324 323 323 323 322 322 323 323 323 322 323 323 323 323 323 323 322 322 322 323 323 324 324 324 323 324 326 330 334 337 337 338 339 340 342 344
330 329 330 330 331 331 331 329 326 326 328 330 331 330 328 328 328 329 329 328 328 327 326 326 327 326 325 325 324 324 324 323 323 322 322 322 322 322 322 323 322 322 322 322 323 324 323 322 322 322 322 322 322 322 322 322 322 323 324 324 324 324 324 324 325 328 333 336 338 338 339 340 341 343
331 330 330 331 332 331 330 327 325 326 327 329 330 328 326 326 328 329 328 325 324 325 325 325 325 325 324 323 323 322 321 320 320 320 320 321 321 321 322 322 322 322 322 321 322 323 323 321 321 321 321 321 321 321 322 322 322 323 324 324 325 324 324 324 324 326 331 335 338 338 339 339 340 342
332 331 330 330 329 328 327 326 326 326 326 327 326 325 325 326 327 327 326 324 322 323 324 324 323 323 323 323 322 320 319 319 319 319 320 321 321 322 322 323 322 322 321 321 321 322 322 321 321 321 321 321 321 321 322 322 322 323 323 324 324 325 324 324 324 325 329 334 338 339 339 340 340 341
330 330 329 328 328 327 326 326 326 325 326 325 323 323 325 327 326 326 326 326 324 324 323 323 322 322 322 322 320 319 319 319 319 319 320 321 321 321 322 322 322 322 321 321 321 322 321 321 321 321 321 320 320 320 321 322 322 323 324 325 325 325 325 325 325 326 328 333 337 338 339 341 342 342
329 328 327 328 328 327 325 325 325 325 325 323 321 322 325 326 326 326 326 325 324 323 323 322 322 323 322 321 320 320 320 319 319 320 320 321 321 321 321 321 322 321 322 322 322 321 321 321 321 321 321 321 321 320 320 321 322 323 325 327 327 328 327 326 325 326 328 332 336 338 339 341 343 343
330 328 327 327 326 325 324 324 325 325 324 321 320 321 323 324 325 325 324 323 322 322 322 322 322 322 322 321 321 321 321 321 320 320 320 320 320 320 320 320 321 321 321 321 321 321 321 321 321 320 320 321 321 320 320 321 322 323 325 327 328 329 330 329 327 326 328 332 336 338 339 340 342 342
331 330 329 328 326 324 324 324 324 324 322 320 320 320 321 322 323 322 322 321 320 320 321 322 322 321 321 321 321 321 321 321 320 320 319 319 319 319 319 319 320 320 320 320 321 321 322 322 321 320 320 320 320 320 320 321 322 323 325 327 328 330 333 333 331 329 329 332 336 338 339 340 342 342
331 331 330 329 326 324 324 324 323 322 320 319 319 319 320 320 320 318 319 320 320 321 321 321 320 320 320 320 320 319 319 319 318 318 317 317 317 318 318 319 319 319 320 320 320 321 322 322 321 320 320 319 320 320 321 321 322 323 325 327 328 329 333 336 335 334 333 334 336 338 339 339 341 342
330 330 329 328 325 324 324 323 321 320 319 318 318 318 319 319 319 318 318 319 320 320 320 319 319 319 319 318 318 318 318 317 316 315 315 315 315 316 317 318 318 319 319 319 320 320 321 321 319 319 319 320 320 320 321 322 322 323 325 328 328 329 331 335 337 337 336 336 337 338 339 340 340 341
329 329 328 326 324 323 322 320 319 318 317 317 317 318 319 320 320 320 319 320 320 319 319 318 318 318 318 317 317 317 315 314 312 313 313 314 314 315 316 317 317 318 319 319 319 318 318 318 318 318 319 319 320 321 321 322 323 324 325 329 330 330 331 334 337 338 338 339 339 338 339 340 340 340
328 327 326 324 322 321 320 318 317 317 316 316 318 320 321 321 321 320 320 319 319 318 317 317 317 317 317 316 315 313 311 310 311 312 313 313 313 314 315 316 317 317 318 318 317 316 316 317 318 318 319 319 320 321 322 323 324 325 326 329 332 332 332 334 338 339 339 339 340 338 338 339 340 340
325 325 324 322 320 319 318 317 318 318 318 319 320 320 319 319 319 318 318 317 317 317 317 316 315 315 315 313 311 310 310 311 312 313 314 313 312 313 314 315 316 317 317 317 316 316 316 317 318 319 320 320 321 322 323 324 325 326 327 330 333 335 334 335 338 341 340 339 340 338 337 338 339 340
324 323 322 319 318 317 317 318 319 319 320 319 318 317 316 315 315 314 312 312 313 314 314 313 313 313 312 311 310 310 311 312 312 312 313 313 312 313 313 314 316 317 317 317 316 316 317 317 318 319 320 321 322 324 325 325 326 327 329 330 333 336 336 337 340 342 341 340 339 339 338 338 338 339
322 320 319 319 319 319 318 319 319 319 319 318 316 315 313 312 311 310 309 309 310 311 311 311 311 311 311 311 311 311 311 311 311 312 312 311 312 312 313 314 315 316 317 317 317 316 317 318 318 319 320 322 324 325 326 326 327 328 330 331 334 337 338 339 341 341 341 341 340 339 339 338 337 338
320 319 320 321 321 320 320 320 319 318 318 317 315 314 312 311 310 309 309 310 310 310 309 310 311 310 310 310 310 310 310 310 310 311 310 310 311 312 313 314 315 315 316 317 317 316 317 318 319 320 321 324 326 326 327 328 328 329 331 333 334 336 337 337 339 340 341 342 341 340 339 339 338 338
320 321 322 322 321 321 321 320 319 318 318 317 316 313 311 310 309 308 308 309 308 307 308 309 309 309 309 309 308 309 309 309 309 309 310 310 311 312 313 314 315 315 316 316 316 317 317 318 319 319 321 325 327 327 328 329 329 330 333 333 332 334 337 338 339 341 342 342 342 341 340 339 338 338
321 322 322 321 321 321 320 319 318 317 316 316 314 312 310 309 307 307 307 307 306 306 307 308 308 308 308 308 308 307 307 307 308 308 309 310 311 312 313 313 314 315 315 316 316 317 318 318 319 320 321 324 327 327 325 325 327 329 332 333 333 335 337 339 339 340 341 342 342 342 341 339 338 338
322 322 322 321 320 319 319 318 316 315 314 312 311 310 310 308 307 306 305 303 302 305 307 306 306 306 306 306 307 306 307 307 308 308 309 310 311 312 313 313 314 315 315 316 316 317 318 318 318 320 321 324 327 329 327 323 323 325 327 331 335 338 339 339 339 341 341 341 341 341 341 340 339 338
321 321 320 319 319 318 317 315 314 312 311 310 309 309 309 308 307 305 302 300 302 305 305 304 305 305 305 305 306 306 306 306 307 308 309 310 310 312 313 313 314 314 314 315 316 317 318 318 318 320 321 322 325 327 327 323 321 322 323 326 332 338 340 339 340 341 341 341 340 341 341 342 341 339
320 319 318 318 317 316 314 313 312 310 309 309 308 308 307 306 305 303 301 302 303 304 304 304 304 304 304 304 305 305 305 306 307 308 309 309 310 311 312 313 313 314 314 315 316 317 317 318 318 319 321 322 322 323 323 322 321 321 321 323 327 333 337 339 340 340 341 341 341 340 341 342 342 340
319 318 317 317 316 315 313 312 310 309 309 308 307 306 306 304 303 302 302 303 303 303 303 304 303 303 303 304 304 304 305 305 306 307 308 308 309 310 311 312 313 313 314 314 316 317 317 317 318 318 319 322 322 321 321 322 321 320 320 321 323 327 331 335 339 341 341 340 340 340 340 341 342 341
317 317 316 315 314 313 312 310 309 308 307 306 305 304 303 301 300 301 302 303 303 303 303 303 303 303 303 304 303 303 304 305 305 306 306 307 308 309 310 310 312 313 314 314 316 317 317 316 317 318 319 320 321 321 321 322 321 321 320 320 320 322 325 330 335 340 342 340 339 340 340 340 341 340
316 316 314 313 312 311 310 309 308 307 305 304 303 302 299 298 298 300 301 301 302 303 303 302 302 302 303 303 303 303 303 304 305 305 305 307 308 308 309 310 311 313 313 314 315 316 317 316 316 317 319 319 320 321 322 322 322 322 321 320 319 320 322 325 331 337 340 340 340 340 341 340 340 340
315 314 313 311 310 309 308 307 306 305 304 303 301 299 298 298 299 299 300 301 302 302 302 301 301 302 302 303 303 303 303 304 304 304 305 306 307 308 309 310 310 311 312 313 314 315 316 316 315 316 318 319 320 321 321 321 321 321 320 320 320 320 320 322 326 331 336 338 338 340 341 341 340 340
313 312 311 309 308 307 306 305 304 303 302 300 297 296 297 300 301 301 301 302 302 302 301 301 301 301 302 302 302 303 303 303 303 304 305 305 306 308 308 309 309 309 310 312 314 316 317 316 315 315 317 318 319 320 320 320 319 319 319 320 320 320 320 321 323 326 329 332 334 336 338 338 339 341
312 310 309 307 306 305 304 303 302 300 299 297 296 296 298 300 301 301 301 301 301 301 301 300 300 301 301 301 302 302 302 302 303 304 304 305 306 307 308 308 309 309 309 311 313 316 317 316 315 315 317 318 319 319 319 319 318 318 318 319 319 319 320 320 321 323 325 327 329 332 334 335 337 339
310 309 307 306 305 304 302 301 299 298 296 295 296 298 299 300 300 301 301 301 301 300 300 300 300 300 300 301 301 301 302 302 303 303 304 304 305 306 307 308 309 309 309 310 312 315 317 317 316 316 316 317 317 317 318 318 317 317 317 318 318 318 319 319 319 320 321 321 323 327 330 333 336 338
Wind_Speed
8 8 9 9 9 8 8 9 9 8 8 9 9 9 9 9 6 5 5 6 8 9 9 9 9 10 15 19 21 22 22 22 20 19 18 18 18 18 17 17 17 18 19 19 19 19 19 19 20 19 19 21 23 26 27 27 27 27 28 29 30 31 31 32 32 32 31 31 31 31 32 32 31 31
9 10 10 10 10 10 10 10 9 10 11 11 11 11 11 10 10 9 8 8 10 13 13 12 11 11 14 18 20 22 23 23 22 20 19 19 18 19 18 18 18 18 19 20 21 22 22 22 21 21 20 20 21 23 26 28 28 28 28 29 30 31 32 33 33 33 33 32 33 32 32 32 31 31
11 12 11 11 11 10 10 10 10 11 13 14 14 14 13 13 13 13 11 9 10 12 15 17 16 15 15 16 18 21 21 23 23 22 21 19 19 19 20 20 20 20 20 21 23 24 25 24 23 22 22 21 21 21 24 27 29 28 28 29 30 31 33 34 34 34 34 34 34 33 33 33 33 32
14 14 14 13 13 11 11 11 11 11 12 14 15 15 15 15 15 14 13 11 11 14 17 19 19 18 17 16 16 17 18 20 23 25 23 21 20 20 21 22 23 23 23 23 25 25 25 25 24 23 22 22 22 21 22 25 28 29 28 28 29 31 33 34 35 35 35 35 35 35 35 35 34 33
15 16 16 15 15 14 12 11 11 11 11 13 14 15 15 16 15 15 15 14 15 16 16 17 19 20 19 19 16 15 16 17 19 22 22 21 21 21 21 22 23 25 25 25 26 26 26 26 25 24 23 22 22 22 22 23 26 29 30 29 29 30 32 34 35 36 36 36 36 36 35 35 35 35
15 16 16 16 16 15 15 13 13 12 11 12 13 13 14 16 16 16 17 16 17 18 17 17 19 19 19 20 18 16 17 17 18 19 20 21 21 21 21 21 22 25 27 27 28 28 27 26 26 26 25 23 22 23 23 23 24 27 31 32 31 30 31 33 35 36 37 37 37 37 36 36 36 36
15 15 15 15 15 15 15 14 13 12 11 11 12 13 13 15 16 16 16 16 17 19 19 18 18 19 19 20 20 18 18 18 19 18 18 19 21 22 23 22 23 26 27 28 29 29 27 26 26 27 27 27 25 24 24 24 25 25 28 32 33 32 31 33 34 36 37 38 37 37 37 37 37 36
15 14 14 14 14 14 14 14 13 12 12 11 11 12 13 14 15 15 15 15 16 17 19 19 18 18 19 20 19 19 19 19 18 16 16 17 20 22 23 22 24 27 28 30 30 30 28 27 28 29 29 30 29 28 27 26 25 26 27 30 33 34 33 33 34 35 37 38 38 38 38 38 37 36
18 16 15 14 14 14 14 14 13 12 12 11 10 11 12 13 13 14 14 15 15 15 18 21 20 18 18 19 19 19 20 20 18 16 16 17 19 21 22 22 23 26 28 29 30 30 29 28 28 30 31 32 31 31 31 29 27 26 27 29 32 35 35 35 34 35 37 39 39 39 38 38 38 37
21 19 17 17 16 15 15 15 14 13 12 11 11 11 12 13 13 14 14 14 14 15 16 19 20 18 17 18 18 17 18 19 20 19 19 18 18 19 21 21 21 22 23 25 28 29 28 28 29 30 31 33 33 33 33 33 30 28 27 28 30 33 36 37 36 35 36 39 40 40 40 39 39 39
20 21 20 20 19 18 18 17 17 15 13 12 12 12 12 12 13 14 14 14 14 14 15 17 18 18 17 17 17 17 17 18 20 20 19 19 19 19 20 22 22 22 22 24 26 27 27 28 29 30 32 34 35 34 34 34 34 31 28 28 30 32 35 37 37 36 36 38 40 41 41 40 40 40
20 21 22 22 21 20 19 19 18 17 15 13 13 13 12 12 13 14 14 14 13 13 14 16 17 17 18 18 18 17 17 18 19 19 19 21 22 22 22 23 24 24 24 25 24 23 24 24 25 26 29 33 34 34 34 34 34 33 29 27 29 31 34 37 38 38 37 38 39 41 42 41 40 40
20 21 21 20 20 20 19 19 19 18 18 17 16 15 14 13 13 14 14 14 14 14 14 15 16 16 17 18 18 17 17 18 20 20 20 21 22 23 24 24 24 23 24 25 25 23 22 21 23 24 26 31 34 34 33 32 30 29 28 26 27 29 32 36 38 39 38 38 38 40 41 41 41 40
18 19 19 20 19 19 20 20 20 20 20 20 20 19 17 15 15 15 15 15 15 15 15 15 16 16 17 18 19 18 18 19 20 19 19 20 21 23 23 23 21 20 22 25 26 26 23 22 24 24 24 30 35 32 29 29 30 30 30 29 29 30 30 32 36 39 39 38 38 39 40 41 41 40
17 17 18 19 19 20 21 21 22 22 22 21 22 21 21 20 19 18 17 17 17 17 16 16 17 17 18 20 19 19 19 20 20 20 19 21 22 22 21 19 18 18 21 25 28 30 26 23 25 26 25 29 33 31 30 33 35 35 35 34 33 32 32 31 32 36 38 38 37 38 40 41 41 41
19 19 19 21 21 22 23 23 23 22 22 21 22 21 21 22 22 22 21 19 18 18 17 18 18 18 20 21 19 19 20 20 21 22 22 21 22 23 22 21 21 21 23 25 28 31 28 23 25 29 27 28 30 32 35 37 37 37 37 36 35 33 33 33 32 33 36 38 38 38 39 40 40 40
23 22 22 22 23 24 24 24 22 21 21 21 21 21 21 23 24 24 24 23 21 20 18 17 19 20 21 21 20 20 21 20 20 21 21 21 23 24 24 24 26 26 25 27 29 31 29 25 26 30 30 28 29 32 36 37 36 36 36 36 35 34 33 33 33 32 33 36 38 38 38 39 40 39
25 26 25 25 26 25 25 24 21 19 19 18 19 19 20 21 22 23 23 22 21 21 20 19 20 21 20 20 21 21 20 19 19 20 21 22 24 26 25 26 29 28 27 27 27 27 27 25 26 30 31 30 30 31 35 37 36 36 37 37 36 36 34 33 33 33 33 34 37 38 38 39 40 40
28 27 26 26 24 23 23 21 19 18 17 17 17 18 18 19 19 18 18 17 17 18 19 18 18 19 20 21 22 21 20 19 19 19 20 21 23 25 25 25 28 27 26 26 24 24 26 25 27 30 31 30 31 32 34 36 35 35 36 37 37 37 35 34 34 34 33 33 35 37 38 38 39 40
26 26 26 25 22 21 20 19 18 18 18 16 16 17 19 19 18 17 18 20 20 18 18 18 19 20 22 23 23 23 23 21 17 16 18 19 20 22 22 22 25 26 25 26 26 26 26 26 29 32 31 32 33 33 34 35 35 35 36 36 37 37 35 34 34 34 34 34 34 36 37 37 39 40
22 24 24 22 19 20 20 19 19 19 18 16 16 18 18 17 18 17 17 20 21 18 16 19 20 21 22 22 23 23 22 19 15 14 17 18 19 20 18 18 22 26 28 28 28 27 26 26 29 32 32 33 35 34 34 36 34 34 36 37 37 37 35 33 33 34 34 34 34 35 37 37 37 37
23 24 22 19 20 24 23 20 19 18 17 17 18 18 16 15 17 16 13 14 16 15 16 17 17 18 19 21 23 22 21 19 16 14 16 18 19 20 18 18 23 27 30 29 26 24 24 25 27 30 30 32 35 34 33 33 33 32 32 34 36 36 35 33 33 34 34 34 34 35 36 36 35 35
25 24 22 21 22 26 25 21 18 18 17 18 18 16 13 12 14 14 13 14 15 14 15 15 15 16 17 18 19 19 19 19 17 14 16 18 20 20 20 22 21 19 23 25 22 21 23 25 27 28 23 20 26 31 29 29 31 30 29 29 30 31 32 31 31 33 34 34 34 35 36 35 34 34
21 20 21 21 20 21 21 18 17 17 17 17 16 16 14 12 13 13 13 13 13 12 14 14 14 16 17 16 15 15 16 16 15 15 17 18 20 20 22 24 21 18 23 27 24 22 24 26 29 32 25 16 19 28 30 30 30 30 28 28 26 26 27 29 30 33 34 34 34 35 36 35 35 34
15 14 16 17 17 18 18 16 15 16 16 15 16 17 16 14 14 15 14 12 11 11 12 12 14 17 17 15 13 13 15 14 14 16 16 17 19 20 21 23 24 24 28 30 27 24 24 25 29 33 31 25 23 28 31 31 31 30 28 28 26 24 24 26 29 32 34 34 34 34 35 36 36 35
12 12 11 12 14 15 15 14 14 14 15 15 16 18 18 17 18 18 15 11 9 10 11 12 15 17 17 16 15 14 15 15 14 16 17 18 20 20 21 22 23 27 30 31 29 27 26 29 33 32 30 27 25 25 27 28 29 29 28 27 27 25 23 24 26 28 31 34 35 35 36 35 36 37
11 10 11 13 15 14 11 11 11 12 13 14 15 17 17 17 18 16 12 8 8 10 11 12 14 15 15 17 16 14 14 15 17 19 20 21 22 22 23 23 23 27 30 30 30 30 29 33 39 38 34 31 24 19 20 23 25 26 26 26 27 25 25 25 25 25 27 29 31 34 37 36 36 37
11 11 11 12 12 10 8 9 10 10 11 13 15 15 14 12 11 9 7 7 8 10 11 12 13 13 13 14 14 14 16 19 22 22 21 21 23 24 23 24 23 25 27 28 31 33 33 35 40 42 41 37 26 17 16 22 25 25 24 24 23 23 26 27 25 24 25 25 25 28 34 38 37 36
12 12 12 10 9 8 9 9 10 10 11 12 12 10 7 6 6 6 7 8 9 11 11 11 11 11 11 12 14 17 20 22 23 21 19 20 23 23 23 24 24 25 27 28 33 38 38 37 40 43 43 40 34 26 21 20 22 24 24 22 20 20 25 28 26 23 24 27 27 26 31 39 41 40
12 11 9 8 7 8 9 9 8 7 7 6 5 4 4 4 5 5 7 8 8 9 10 9 10 12 12 14 17 20 21 21 21 19 17 19 21 21 22 23 25 27 29 31 35 39 39 38 40 43 43 41 38 34 27 19 18 21 23 22 17 15 19 26 26 23 24 30 29 24 25 31 37 42
7 7 7 7 7 7 7 6 4 2 2 1 1 3 3 4 5 6 7 8 8 8 9 9 11 12 13 15 17 18 17 18 20 19 17 18 20 20 21 22 24 27 29 31 37 40 38 37 40 42 42 40 35 30 24 18 17 18 20 21 18 13 15 21 24 23 23 28 28 22 20 22 27 35
5 5 6 5 5 4 3 1 1 2 3 2 3 4 4 5 6 7 7 7 7 8 9 10 11 12 13 14 15 16 16 18 19 19 17 18 19 19 20 21 23 25 26 30 38 42 38 37 40 43 42 36 26 19 16 17 18 18 17 17 17 15 15 19 23 24 23 24 25 21 19 20 24 31
5 5 5 5 5 3 2 2 2 3 3 3 4 4 4 4 4 5 5 5 6 7 8 9 10 11 13 14 15 15 16 17 19 19 18 19 19 19 20 21 22 23 25 28 34 39 41 41 42 43 40 26 15 14 12 13 16 17 16 15 14 16 19 20 21 24 25 25 23 19 18 19 21 27
5 5 5 5 5 3 3 3 3 3 4 4 4 3 3 3 3 4 4 4 5 7 8 9 10 11 12 14 14 15 16 18 19 19 18 18 18 18 20 22 21 22 25 27 28 33 39 43 44 46 42 21 7 11 11 10 11 12 14 16 16 17 20 20 18 20 23 24 22 18 16 16 17 21
4 4 4 4 3 3 3 3 3 4 4 3 2 2 2 3 3 4 4 5 6 8 8 9 10 11 12 13 14 15 16 17 19 18 17 17 16 17 19 20 20 22 25 26 25 28 35 40 41 40 34 18 3 7 6 8 8 9 10 16 19 18 18 17 15 15 17 19 21 18 15 15 15 17
4 4 4 3 3 3 3 2 2 2 1 1 1 2 3 3 4 4 5 7 8 8 8 9 10 11 12 13 14 15 15 16 17 17 17 16 16 17 19 20 20 21 22 22 23 25 31 37 37 28 17 10 4 2 1 3 6 9 10 12 16 16 15 15 14 14 14 16 20 20 16 14 14 17
5 3 3 3 2 3 3 2 2 1 0 0 2 2 3 4 5 5 7 9 8 7 8 9 10 10 11 12 13 14 15 15 15 16 16 16 16 16 18 21 21 21 21 21 21 24 28 32 34 27 14 8 7 4 3 7 12 16 15 10 7 10 12 14 14 13 13 15 19 20 18 15 14 17
4 3 3 2 2 2 2 1 2 1 0 1 2 3 4 5 5 5 7 7 6 7 8 8 9 10 11 12 12 14 14 15 15 15 15 15 16 15 17 20 21 20 21 20 20 24 27 28 30 29 20 10 7 7 6 8 12 19 20 13 6 6 11 14 14 13 13 15 17 17 17 16 15 15
3 3 3 2 3 2 2 2 1 0 0 1 3 3 4 5 5 5 6 5 6 8 8 8 9 10 11 11 12 13 14 15 15 15 15 15 16 15 16 19 20 20 20 20 19 22 26 26 28 31 27 18 12 12 10 6 9 17 22 19 11 6 9 14 15 14 14 16 17 16 16 16 13 12
3 3 3 3 3 3 2 2 1 0 1 2 3 4 5 5 5 5 5 5 6 7 7 8 9 10 10 11 12 13 13 14 14 15 15 15 16 16 16 17 18 18 19 19 18 21 25 28 29 31 30 26 21 15 10 8 12 18 23 24 22 15 9 9 13 14 14 17 18 17 15 15 14 12
4 4 3 3 3 2 2 1 0 1 1 2 3 4 5 5 4 4 4 5 6 7 7 8 9 9 10 11 12 13 13 14 14 15 16 15 15 16 17 16 16 16 17 17 17 19 23 28 30 29 28 27 24 16 10 10 12 16 20 23 24 21 15 6 7 12 15 18 20 17 13 13 14 14
4 4 4 3 3 2 1 1 0 1 2 2 3 3 3 3 3 4 4 4 5 6 7 7 8 9 10 11 12 12 13 14 15 16 16 16 16 16 16 16 15 15 16 16 17 18 20 25 29 28 27 28 26 18 11 8 10 15 20 22 22 23 22 16 7 5 9 14 17 14 10 9 9 10
4 4 4 4 3 3 2 1 1 2 2 2 3 3 2 2 2 3 3 4 5 6 7 8 8 9 10 11 12 12 12 13 15 16 16 16 16 15 15 16 16 16 16 16 17 16 17 23 27 27 25 26 24 18 13 13 16 20 22 23 23 23 24 24 21 16 11 10 10 9 9 9 7 6
4 4 4 4 4 3 2 1 1 2 2 2 2 2 2 2 2 2 3 4 5 6 7 8 8 9 10 11 11 12 12 13 15 16 16 16 16 15 15 16 16 16 15 16 17 15 14 19 24 25 22 21 22 20 17 16 18 20 21 23 25 26 25 26 26 26 24 21 14 9 9 10 8 8
5 4 4 4 4 3 2 1 1 1 2 1 1 1 1 1 2 2 2 3 4 5 7 8 8 9 10 11 11 12 13 13 14 15 15 16 16 16 15 15 16 16 15 15 15 15 14 16 19 21 21 21 22 23 20 18 20 23 24 25 27 27 25 25 26 29 32 30 24 16 11 9 9 10
Wind_Direction
262 258 256 257 262 263 260 260 259 262 264 265 266 259 254 259 273 287 291 295 297 292 292 295 288 292 311 320 323 325 328 332 338 337 331 331 335 337 341 349 356 358 358 354 348 340 330 321 316 311 305 298 285 273 264 259 259 257 255 252 249 247 246 245 246 247 245 242 242 244 245 244 245 247
270 268 265 263 265 266 266 266 266 269 271 268 267 264 256 251 256 274 287 293 297 294 293 297 294 291 301 310 313 316 319 324 330 333 327 322 323 327 331 338 345 351 354 353 351 347 341 331 322 315 309 303 294 282 271 263 259 258 257 255 251 249 247 246 246 246 245 243 241 242 243 243 243 245
271 270 267 264 264 266 268 268 266 268 272 271 270 267 260 251 251 262 275 287 292 289 288 295 300 296 295 300 305 309 312 317 322 327 324 317 314 319 323 327 333 340 345 348 347 345 342 338 330 320 312 306 299 289 279 270 263 259 257 256 254 251 248 246 245 244 244 243 242 242 243 243 242 242
271 269 266 265 265 266 269 272 272 269 270 272 272 270 263 256 253 258 265 276 285 284 283 289 298 300 297 295 298 301 306 311 316 320 320 315 311 314 318 320 323 329 335 340 342 342 340 339 335 328 318 309 302 295 285 275 268 263 259 256 255 253 250 247 245 243 242 242 241 241 242 242 242 241
273 271 268 268 269 270 272 276 278 276 275 275 274 273 269 264 262 260 261 269 281 287 287 288 295 302 302 298 294 295 300 305 311 313 314 314 312 309 312 315 317 322 328 332 336 338 338 337 336 334 326 316 307 300 292 282 273 267 262 258 254 253 251 249 246 244 242 241 241 241 240 241 241 240
272 272 272 272 273 274 276 278 278 277 276 275 273 272 271 270 269 265 263 269 281 290 293 291 294 300 302 300 298 298 301 303 307 306 304 309 311 308 307 308 311 316 322 327 330 333 335 334 335 335 332 325 315 305 298 289 279 269 264 261 256 252 251 249 247 245 243 241 240 239 239 239 239 239
270 273 274 274 274 275 276 277 277 276 276 273 271 271 269 270 273 270 265 268 278 289 294 294 295 298 299 299 300 301 302 303 306 303 297 299 304 307 305 302 305 311 317 321 325 328 331 332 332 333 333 330 323 314 305 295 285 274 266 262 258 254 251 249 248 246 244 242 240 238 238 237 236 237
267 270 272 273 273 272 272 274 274 275 277 275 272 274 272 269 273 275 269 267 273 284 292 295 297 298 297 296 298 301 302 303 303 299 294 293 295 300 304 301 301 307 312 316 320 323 326 328 329 330 330 329 326 321 314 304 293 282 270 262 258 255 251 249 248 246 244 243 241 239 237 236 235 235
265 266 268 271 271 270 269 271 271 272 277 279 274 274 275 272 273 276 273 270 272 279 289 295 299 299 296 295 296 298 301 303 304 299 297 297 293 294 299 299 299 302 307 312 315 318 321 323 323 325 326 325 325 323 319 311 301 289 277 266 259 255 252 249 247 246 244 243 241 239 237 236 235 234
263 266 268 270 271 269 269 269 268 269 274 278 275 271 273 274 274 275 274 273 275 281 287 292 296 298 297 295 295 297 299 300 303 303 303 303 299 295 298 299 297 297 298 303 308 312 315 317 317 319 322 323 322 321 319 314 306 295 283 272 262 255 251 249 246 245 244 243 241 240 237 236 235 234
261 265 270 272 271 270 269 268 268 269 272 275 274 271 270 271 273 275 276 277 279 284 288 290 293 297 297 295 295 297 298 296 297 300 301 303 303 301 300 300 299 297 294 296 301 306 310 312 313 315 319 321 321 319 316 312 306 298 287 275 266 258 251 248 246 244 244 243 241 239 237 235 234 233
261 265 269 269 269 268 268 268 269 271 271 272 273 272 268 267 269 272 276 281 282 284 286 288 292 295 296 297 296 298 299 297 297 301 301 301 301 301 300 300 300 299 296 295 296 299 303 305 305 306 310 316 318 315 312 308 303 298 292 280 269 261 253 248 245 242 242 242 241 239 236 234 233 232
262 264 265 266 267 268 267 269 271 272 271 269 271 274 270 264 264 269 274 278 279 282 283 285 288 292 293 295 296 297 297 296 297 299 299 297 298 300 300 298 298 299 297 296 295 297 299 298 297 296 300 309 314 312 308 305 299 294 291 283 274 266 257 249 245 242 240 240 240 238 235 233 231 231
260 262 264 265 266 267 267 269 271 273 272 267 267 271 270 264 261 264 270 272 274 278 281 282 286 288 288 292 296 296 295 295 295 296 296 295 297 300 299 296 295 297 298 297 295 296 298 295 292 291 292 302 309 306 300 299 295 289 285 281 275 270 263 254 247 243 240 239 238 237 234 231 230 230
258 260 264 267 267 267 268 270 273 277 275 268 263 266 270 269 264 262 264 267 270 274 276 278 281 284 286 292 296 295 294 296 296 296 296 296 296 298 298 296 295 295 296 296 294 294 296 294 291 289 288 295 301 299 296 297 295 290 286 282 276 270 266 260 252 246 242 238 237 236 233 230 229 229
261 262 264 267 269 269 271 273 275 279 279 271 263 263 268 270 268 264 261 261 265 269 272 274 277 280 288 293 293 293 295 298 298 298 297 295 294 294 294 293 293 293 295 294 291 291 293 294 293 290 287 289 291 294 297 297 293 289 286 282 277 271 265 261 255 248 243 239 236 234 232 230 228 227
263 264 265 266 268 272 274 275 277 280 281 274 266 265 268 270 271 270 266 263 264 266 266 268 273 278 285 289 290 291 296 297 297 296 295 293 292 291 290 290 292 293 294 291 287 287 289 293 294 290 288 288 286 289 294 294 290 286 285 282 278 272 266 260 255 249 243 239 236 234 232 230 227 225
265 266 266 267 269 272 273 274 279 281 278 272 267 267 269 272 274 275 274 271 268 267 265 262 267 274 280 285 288 291 294 293 291 291 291 291 290 288 287 288 289 290 290 286 282 282 286 293 295 291 290 291 287 286 290 290 287 283 280 279 277 272 267 261 254 249 244 239 236 233 231 230 227 224
266 266 267 267 268 269 271 276 284 286 277 268 267 270 272 275 276 275 275 273 268 269 268 264 264 271 278 282 284 288 291 289 287 287 287 286 286 286 286 287 287 287 287 285 281 278 285 294 296 292 293 294 290 288 288 288 285 280 277 276 275 271 267 261 254 248 243 239 235 233 231 229 227 225
265 265 266 265 264 265 266 270 279 284 278 267 265 271 275 279 280 278 280 283 281 276 269 264 266 273 279 282 285 290 294 291 288 288 287 285 284 284 284 284 287 289 290 289 285 281 286 295 295 293 296 296 292 289 288 286 283 279 275 272 272 270 265 259 253 246 241 238 234 231 230 228 227 225
265 268 267 264 267 269 263 259 266 275 275 270 271 275 277 280 283 284 288 292 294 290 278 273 275 279 283 289 295 301 303 300 295 288 284 285 286 286 286 285 288 291 291 291 288 284 287 293 291 292 295 293 290 288 286 285 283 278 273 269 267 266 263 257 251 244 238 236 233 230 228 227 225 225
269 271 266 264 273 272 260 253 261 265 264 266 271 275 276 280 285 288 292 294 296 298 294 291 292 293 295 301 308 311 311 310 303 281 273 282 289 289 289 290 292 292 290 289 287 283 286 289 288 291 294 290 286 286 284 285 284 278 271 266 263 262 259 254 248 241 235 233 231 228 226 224 223 225
270 267 260 265 274 266 254 253 259 259 258 262 269 273 275 279 284 289 293 290 288 292 293 293 297 299 299 302 306 307 306 307 301 279 273 283 288 288 290 292 293 292 289 290 289 284 287 290 289 291 295 291 287 287 285 283 282 278 272 264 258 257 255 251 244 237 232 230 228 226 224 222 223 224
265 259 258 270 272 255 249 257 262 259 260 264 269 274 274 275 279 285 289 285 283 287 289 290 297 301 299 297 297 297 296 296 291 284 283 287 288 290 291 291 289 285 285 290 291 287 286 288 288 290 289 283 285 290 287 283 280 277 271 263 255 252 251 246 239 233 228 227 226 225 222 221 221 221
254 253 258 269 265 248 248 261 263 259 262 266 271 275 275 273 275 279 281 280 280 285 290 295 301 303 301 298 297 297 296 294 293 294 292 289 287 286 286 288 288 285 284 287 289 287 285 284 286 288 286 279 277 281 284 282 278 273 267 260 254 250 244 236 230 227 224 224 224 223 221 221 221 219
250 252 251 255 257 254 255 259 257 256 262 268 272 276 278 278 278 276 275 273 275 283 292 299 303 305 304 303 303 302 300 300 301 300 298 295 292 285 281 283 284 282 284 288 291 290 286 284 284 285 284 282 277 273 276 279 276 271 264 256 251 249 243 230 219 216 217 220 221 220 219 219 220 219
255 255 250 252 261 265 259 253 253 258 265 271 275 277 277 278 276 272 266 264 271 285 295 299 301 303 304 305 306 304 302 304 304 303 304 302 297 290 285 283 281 279 281 285 287 286 283 282 284 284 281 280 279 272 270 271 270 267 261 252 246 245 243 232 216 207 207 212 216 217 216 218 219 219
260 254 252 260 268 266 255 253 258 265 272 279 282 281 277 272 264 253 252 265 279 289 294 294 294 296 299 300 300 298 301 307 308 307 306 303 300 296 291 290 288 282 280 284 290 294 291 286 286 287 284 279 275 268 264 265 262 257 252 248 241 237 237 231 216 204 200 200 206 211 212 215 217 218
253 253 257 265 267 261 260 268 277 281 282 282 280 272 261 248 241 242 258 276 285 287 289 289 289 293 295 294 296 301 307 311 310 307 303 304 306 304 299 298 295 289 291 300 307 309 305 294 289 289 288 283 275 264 256 255 254 248 242 240 237 232 233 229 214 200 196 196 199 203 206 210 212 213
251 255 259 260 259 265 276 284 287 283 278 278 269 249 234 237 245 255 268 276 280 282 286 289 291 294 297 298 303 310 311 309 307 305 303 305 309 308 306 305 301 299 304 315 320 317 309 301 297 294 290 286 279 269 255 241 238 239 236 235 232 228 232 227 211 197 195 197 197 200 202 206 209 211
246 246 250 255 260 274 288 296 294 253 223 244 264 252 253 258 265 274 280 281 282 283 288 292 293 296 301 303 306 309 306 303 306 307 305 305 308 310 310 306 301 302 308 317 324 323 315 309 307 303 294 288 282 270 253 233 226 229 230 232 228 222 228 221 204 193 195 196 196 198 195 196 204 210
220 227 237 243 248 255 265 297 121 165 187 239 269 269 273 280 287 294 297 294 290 289 291 293 295 299 302 302 303 304 302 303 307 308 308 307 307 311 311 305 301 304 307 312 320 324 323 318 316 313 305 295 279 259 239 226 225 228 229 231 226 217 221 217 200 193 194 193 192 194 189 187 198 206
213 218 218 217 215 205 185 178 199 210 227 250 254 260 278 288 292 300 301 294 289 292 296 296 296 300 301 301 304 305 304 306 309 310 312 313 311 313 312 306 304 306 306 307 314 321 326 327 325 326 324 311 265 236 232 222 223 229 231 236 232 217 216 218 205 196 195 192 188 185 182 186 197 203
216 213 216 220 216 203 209 234 244 251 265 262 247 249 275 282 289 296 293 290 295 299 300 297 297 300 302 303 306 308 307 310 312 313 314 312 311 315 315 311 309 310 309 308 311 320 327 330 332 337 341 337 240 228 258 253 242 243 238 238 239 224 215 215 205 192 190 190 187 181 179 185 194 201
230 223 232 234 213 206 230 247 251 262 270 263 255 275 286 288 298 300 293 297 303 302 300 298 300 302 303 304 307 309 310 312 313 315 317 313 310 314 318 314 309 310 311 311 316 325 330 333 336 340 342 341 255 220 270 280 282 295 274 245 234 223 217 215 203 189 187 188 186 179 174 179 188 196
241 237 242 235 201 205 230 228 219 253 269 260 291 303 305 304 306 301 299 305 308 304 301 303 304 305 305 307 308 309 310 311 313 316 319 317 313 317 322 319 313 313 315 315 320 329 334 336 337 337 335 333 310 209 156 18 4 356 327 267 227 210 212 214 202 193 190 189 186 183 176 177 187 195
249 239 234 227 200 208 228 201 162 165 249 318 309 312 313 310 305 303 308 311 309 303 301 304 305 307 309 310 311 313 315 316 317 317 318 317 315 318 324 324 321 321 321 318 322 332 337 338 336 334 332 341 343 344 37 28 18 15 360 322 253 208 205 206 198 193 192 190 191 191 188 185 185 193
252 235 223 218 194 186 188 165 142 136 181 303 313 311 307 306 304 305 310 313 311 307 305 306 307 311 314 315 315 317 320 322 322 321 321 321 319 317 321 326 326 324 322 318 322 334 339 340 338 336 337 349 358 356 10 15 14 17 14 358 314 245 217 206 199 196 194 194 194 194 196 196 191 193
239 226 214 200 181 170 161 161 164 180 275 310 320 317 312 311 308 308 312 313 313 312 310 309 314 316 317 318 319 321 321 323 325 326 325 324 322 319 320 325 328 327 324 320 323 333 340 342 340 338 339 346 345 333 329 348 19 22 20 18 8 318 251 219 203 195 194 195 193 189 190 191 186 184
209 201 194 181 168 160 157 160 156 336 321 322 320 314 312 311 307 310 316 316 315 314 311 312 318 320 319 322 325 326 324 324 326 327 326 325 323 321 321 322 324 328 328 323 323 331 338 341 342 340 342 348 350 341 337 7 28 25 22 24 24 10 326 252 212 195 193 196 193 185 177 171 164 160
189 182 179 174 163 157 165 166 181 308 302 311 311 306 306 305 303 310 319 321 319 317 315 317 321 322 322 325 327 327 327 328 329 330 331 328 324 324 324 322 323 331 333 326 322 327 334 341 347 350 352 359 5 10 19 26 24 23 22 23 25 26 18 336 227 199 193 195 191 180 168 161 158 157
185 179 172 169 166 164 167 169 275 291 294 298 298 297 295 294 302 316 323 322 320 318 319 323 323 321 323 327 328 328 328 329 331 332 333 333 331 329 330 330 329 332 332 324 317 320 332 346 355 359 2 7 12 17 24 25 20 21 23 23 25 33 39 41 54 129 168 183 184 175 162 155 152 155
186 179 172 171 171 169 169 194 256 279 290 287 286 290 285 282 302 322 320 315 320 324 326 327 323 321 324 326 326 329 330 332 334 334 334 335 334 331 331 332 330 328 327 325 320 321 335 351 360 2 4 8 13 16 20 22 21 21 22 23 25 31 41 48 56 70 93 123 139 146 155 164 170 174
187 184 179 174 169 169 175 200 252 280 290 279 274 280 278 269 290 308 310 314 323 328 330 328 324 323 326 326 326 330 332 333 334 333 333 335 336 332 331 332 331 328 329 332 333 331 337 350 1 6 5 6 11 16 17 18 20 20 21 23 26 28 32 41 50 58 64 68 76 102 143 161 171 177
188 187 180 173 172 175 180 191 247 280 281 269 253 253 254 259 279 289 298 314 324 327 329 330 328 326 326 327 328 329 331 332 333 334 337 339 339 337 336 335 334 333 334 338 340 338 334 343 357 4 6 7 13 17 18 19 22 23 24 24 25 26 29 34 44 52 54 53 56 71 98 126 143 148